Flag for U.S.A. Weather past 2 weeks in Eureka, California, U.S.A.

Now
61 °F

Overcast.


Feels Like: 61 °F
Forecast: 55 / 63 °F
Wind: No wind

Location: Arcata Airport

Current Time: Jul 23, 2014 at 1:39:05 AM

Latest Report: Jul 23, 2014 at 12:53 AM


Visibility: 10 mi

Pressure: 30.12 "Hg

Humidity: 81%

Dew point: 55 °F

Location of EurekaLocation

Historic Weather in Eureka — Graph

°F

Eureka temperature yesterday

Maximum temperature yesterday: 63 °F (at 5:53 PM)
Minimum temperature yesterday: 54 °F (at 5:53 AM)
Average temperature yesterday: 58 °F

Past Weeks' High & Low Weather Summary

 TemperatureHumidityPressure
High66 °F (Jul 9, 1:53 PM)100% (Jul 8, 11:53 AM)30.16 "Hg (Jul 8, 11:53 AM)
Low52 °F (Jul 19, 5:03 AM)63% (Jul 9, 2:53 PM)29.88 "Hg (Jul 10, 1:53 AM)
Average58 °F86%30.01 "Hg
* Reported Jul 7 9:53 PM — Jul 22 9:53 PM, Eureka, Weather by CustomWeather, © 2014

Note: Actual official high and low records may vary slightly from our data, if they occured in-between our weather recording intervals... More about our weather records

Advertising

Eureka weather history for previous 24 hours

 ConditionsComfort  
Time TempWeatherWind HumidityBarometerVisibility
9:53 PM
Jul 22
61 °FOvercast.3 mph78%30.12 "Hg10 mi
8:53 PM62 °FOvercast.No wind75%30.11 "Hg10 mi
7:53 PM62 °FOvercast.3 mph75%30.10 "Hg10 mi
6:53 PM63 °FOvercast.3 mph75%30.10 "Hg10 mi
5:53 PM63 °FOvercast.3 mph75%30.10 "Hg10 mi
4:53 PM62 °FOvercast.3 mph78%30.11 "Hg10 mi
9:53 AM59 °FLow clouds.5 mph87%30.09 "Hg10 mi
8:53 AM58 °FFog.6 mph90%30.09 "Hg6 mi
7:53 AM57 °FFog.3 mph93%30.08 "Hg3 mi
6:53 AM57 °FFog.No wind90%30.06 "Hg6 mi
6:03 AM54 °FFog.No wind90%30.04 "Hg6 mi
5:53 AM54 °FFog.No wind93%30.06 "Hg6 mi
4:53 AM56 °FFog.No wind90%30.05 "Hg6 mi
3:53 AM57 °FPassing clouds.5 mph87%30.05 "Hg10 mi
2:53 AM56 °FClear.No wind87%30.05 "Hg10 mi
1:53 AM56 °FPassing clouds.3 mph87%30.06 "Hg10 mi
Weather by CustomWeather, © 2014

See weather overviewHow to use our weather pages